Tracking 27188 objects as of 1-Apr-2023
HD Live streaming from Space Station
objects crossing your sky now

ARIANE 5 DEB (SYLDA)

Track ARIANE 5 DEB (SYLDA) now!
10-day predictions


NORAD ID: 43273
Int'l Code: 2018-033C
Perigee: 249.6 km
Apogee: 19,598.8 km
Inclination: 2.8 °
Period: 345.0 minutes
Semi major axis: 16295 km
RCS: Unknown
Launch date: April 5, 2018
Source: France (FR)
Launch site: FRENCH GUIANA (FRGUI)

Note: This is SATELLITE DEBRIS
Your satellite tracking list
Your tracking list is empty




NASA's NSSDC Master Catalog

Two Line Element Set (TLE):
1 43273U 18033C   23091.24332039  .00106012  00000-0  95261-2 0  9990
2 43273   2.8198 324.3465 5937110 205.5957 105.6777  4.17362845 55479
Source of the keplerian elements: AFSPC